ELLX

Luxembourg

Airport
ICAO code
ELLX
Summary
ICAO Region
EUR
ICAO Territory
Location

Luxembourg,

Elevation
1234 ft
Coordinates
49° 37' 24" N , 6° 12' 16" E
KCC
Metar
ELLX 191250Z 26013KT 220V290 9999 -RA SCT008 BKN013 08/07 Q1010 NOSIG

Description

International airport serving Luxembourg.

Climatology

Temperate Marine climate/Oceanic climate (Köppen climate classification Cfb). Moderately cool summer and comparatively warm winter with a temperature range of only 14°C. Prevailing south-westerly winds from the Atlantic Ocean.

Runways

Designator Length Width Surface Rops
6/24 4000 60 PEM Yes/Yes

SKYbrary Partners:

Safety knowledge contributed by: